User: anonymous   Login
Location: Fort Wayne
(41.1310°N, 85.1290°W)
Time: 22:05:51
(UTC-04:00)
Language:

CZ-2C R/B - Orbit

View from above orbital plane
View from above orbital plane
View from above satellite
View from above satellite

Ground track
Ground track

The orbit data is extracted from the following two-line orbital elements,

1 36089U 09061B   16210.16285466  .00000013  00000-0  14680-4 0  9997
2 36089  98.0512 220.4319 0081275 324.4945  76.9273 14.49588257354760
Epoch (UTC): 28 July 2016 03:54:30
Eccentricity: 0.0081275
inclination: 98.0512°
perigee height: 669 km
apogee height: 785 km
right ascension of ascending node: 220.4319°
argument of perigee: 324.4945°
revolutions per day: 14.49588257
mean anomaly at epoch: 76.9273°
orbit number at epoch: 35476

The dashed part of the orbit path shows where the satellite is in the earth's shadow,  

DLR